Year,Month,Day,Hour,Minute,Value (Times are PST for temperature in C)
2010,08,18,00,00,17.20
2010,08,18,00,01,17.20
2010,08,18,00,02,17.30
2010,08,18,00,03,17.30
2010,08,18,00,04,17.30
2010,08,18,00,05,17.30
2010,08,18,00,06,17.30
2010,08,18,00,07,17.40
2010,08,18,00,08,17.40
2010,08,18,00,09,17.40
2010,08,18,00,10,17.40
2010,08,18,00,11,17.40
2010,08,18,00,12,17.40
2010,08,18,00,13,17.40
2010,08,18,00,14,17.40
2010,08,18,00,15,17.40
2010,08,18,00,16,17.40
2010,08,18,00,17,17.40
2010,08,18,00,18,17.40
2010,08,18,00,19,17.40
2010,08,18,00,20,17.40
2010,08,18,00,21,17.40
2010,08,18,00,22,17.40
2010,08,18,00,23,17.40
2010,08,18,00,24,17.40
2010,08,18,00,25,17.40
2010,08,18,00,26,17.40
2010,08,18,00,27,17.40
2010,08,18,00,28,17.40
2010,08,18,00,29,17.40
2010,08,18,00,30,17.30
2010,08,18,00,31,17.30
2010,08,18,00,32,17.30
2010,08,18,00,33,17.30
2010,08,18,00,34,17.30
2010,08,18,00,35,17.30
2010,08,18,00,36,17.30
2010,08,18,00,37,17.30
2010,08,18,00,38,17.30
2010,08,18,00,39,17.40
2010,08,18,00,40,17.40
2010,08,18,00,41,17.40
2010,08,18,00,42,17.40
2010,08,18,00,43,17.40
2010,08,18,00,44,17.40
2010,08,18,00,45,17.40
2010,08,18,00,46,17.40
2010,08,18,00,47,17.50
2010,08,18,00,48,17.50
2010,08,18,00,49,17.50
2010,08,18,00,50,17.50
2010,08,18,00,51,17.50
2010,08,18,00,52,17.60
2010,08,18,00,53,17.60
2010,08,18,00,54,17.60
2010,08,18,00,55,17.60
2010,08,18,00,56,17.60
2010,08,18,00,57,17.50
2010,08,18,00,58,17.50
2010,08,18,00,59,17.50
2010,08,18,01,00,17.50
2010,08,18,01,01,17.50
2010,08,18,01,02,17.50
2010,08,18,01,03,17.50
2010,08,18,01,04,17.50
2010,08,18,01,05,17.50
2010,08,18,01,06,17.50
2010,08,18,01,07,17.50
2010,08,18,01,08,17.40
2010,08,18,01,09,17.40
2010,08,18,01,10,17.40
2010,08,18,01,11,17.40
2010,08,18,01,12,17.40
2010,08,18,01,13,17.40
2010,08,18,01,14,17.40
2010,08,18,01,15,17.40
2010,08,18,01,16,17.30
2010,08,18,01,17,17.30
2010,08,18,01,18,17.30
2010,08,18,01,19,17.30
2010,08,18,01,20,17.30
2010,08,18,01,21,17.30
2010,08,18,01,22,17.30
2010,08,18,01,23,17.30
2010,08,18,01,24,17.20
2010,08,18,01,25,17.20
2010,08,18,01,26,17.10
2010,08,18,01,27,17.10
2010,08,18,01,28,17.00
2010,08,18,01,29,17.00
2010,08,18,01,30,16.90
2010,08,18,01,31,16.90
2010,08,18,01,32,16.80
2010,08,18,01,33,16.80
2010,08,18,01,34,16.70
2010,08,18,01,35,16.70
2010,08,18,01,36,16.70
2010,08,18,01,37,16.70
2010,08,18,01,38,16.70
2010,08,18,01,39,16.60
2010,08,18,01,40,16.60
2010,08,18,01,41,16.60
2010,08,18,01,42,16.60
2010,08,18,01,43,16.50
2010,08,18,01,44,16.40
2010,08,18,01,45,16.40
2010,08,18,01,46,16.40
2010,08,18,01,47,16.40
2010,08,18,01,48,16.30
2010,08,18,01,49,16.30
2010,08,18,01,50,16.20
2010,08,18,01,51,16.20
2010,08,18,01,52,16.10
2010,08,18,01,53,16.10
2010,08,18,01,54,16.10
2010,08,18,01,55,16.10
2010,08,18,01,56,16.10
2010,08,18,01,57,16.00
2010,08,18,01,58,15.90
2010,08,18,01,59,15.90
2010,08,18,02,00,15.90
2010,08,18,02,01,15.90
2010,08,18,02,02,15.80
2010,08,18,02,03,15.80
2010,08,18,02,04,15.80
2010,08,18,02,05,15.80
2010,08,18,02,06,15.80
2010,08,18,02,07,15.70
2010,08,18,02,08,15.70
2010,08,18,02,09,15.60
2010,08,18,02,10,15.60
2010,08,18,02,11,15.60
2010,08,18,02,12,15.50
2010,08,18,02,13,15.50
2010,08,18,02,14,15.50
2010,08,18,02,15,15.40
2010,08,18,02,16,15.40
2010,08,18,02,17,15.40
2010,08,18,02,18,15.40
2010,08,18,02,19,15.30
2010,08,18,02,20,15.30
2010,08,18,02,21,15.30
2010,08,18,02,22,15.30
2010,08,18,02,23,15.30
2010,08,18,02,24,15.30
2010,08,18,02,25,15.30
2010,08,18,02,26,15.30
2010,08,18,02,27,15.20
2010,08,18,02,28,15.20
2010,08,18,02,29,15.20
2010,08,18,02,30,15.20
2010,08,18,02,31,15.10
2010,08,18,02,32,15.10
2010,08,18,02,33,15.10
2010,08,18,02,34,15.10
2010,08,18,02,35,15.10
2010,08,18,02,36,15.00
2010,08,18,02,37,15.00
2010,08,18,02,38,15.00
2010,08,18,02,39,14.90
2010,08,18,02,40,14.90
2010,08,18,02,41,14.90
2010,08,18,02,42,14.90
2010,08,18,02,43,14.80
2010,08,18,02,44,14.80
2010,08,18,02,45,14.80
2010,08,18,02,46,14.80
2010,08,18,02,47,14.80
2010,08,18,02,48,14.80
2010,08,18,02,49,14.70
2010,08,18,02,50,14.70
2010,08,18,02,51,14.70
2010,08,18,02,52,14.70
2010,08,18,02,53,14.60
2010,08,18,02,54,14.60
2010,08,18,02,55,14.60
2010,08,18,02,56,14.60
2010,08,18,02,57,14.60
2010,08,18,02,58,14.60
2010,08,18,02,59,14.50
2010,08,18,03,00,14.50
2010,08,18,03,01,14.50
2010,08,18,03,02,14.50
2010,08,18,03,03,14.50
2010,08,18,03,04,14.50
2010,08,18,03,05,14.50
2010,08,18,03,06,14.40
2010,08,18,03,07,14.40
2010,08,18,03,08,14.40
2010,08,18,03,09,14.40
2010,08,18,03,10,14.40
2010,08,18,03,11,14.40
2010,08,18,03,12,14.40
2010,08,18,03,13,14.40
2010,08,18,03,14,14.30
2010,08,18,03,15,14.30
2010,08,18,03,16,14.30
2010,08,18,03,17,14.30
2010,08,18,03,18,14.30
2010,08,18,03,19,14.30
2010,08,18,03,20,14.20
2010,08,18,03,21,14.20
2010,08,18,03,22,14.20
2010,08,18,03,23,14.20
2010,08,18,03,24,14.20
2010,08,18,03,25,14.20
2010,08,18,03,26,14.20
2010,08,18,03,27,14.20
2010,08,18,03,28,14.20
2010,08,18,03,29,14.10
2010,08,18,03,30,14.10
2010,08,18,03,31,14.10
2010,08,18,03,32,14.10
2010,08,18,03,33,14.00
2010,08,18,03,34,14.00
2010,08,18,03,35,14.00
2010,08,18,03,36,14.00
2010,08,18,03,37,13.90
2010,08,18,03,38,13.90
2010,08,18,03,39,13.90
2010,08,18,03,40,13.90
2010,08,18,03,41,13.90
2010,08,18,03,42,13.80
2010,08,18,03,43,13.80
2010,08,18,03,44,13.80
2010,08,18,03,45,13.80
2010,08,18,03,46,13.80
2010,08,18,03,47,13.70
2010,08,18,03,48,13.70
2010,08,18,03,49,13.70
2010,08,18,03,50,13.70
2010,08,18,03,51,13.70
2010,08,18,03,52,13.70
2010,08,18,03,53,13.70
2010,08,18,03,54,13.70
2010,08,18,03,55,13.60
2010,08,18,03,56,13.60
2010,08,18,03,57,13.60
2010,08,18,03,58,13.60
2010,08,18,03,59,13.60
2010,08,18,04,00,13.60
2010,08,18,04,01,13.60
2010,08,18,04,02,13.50
2010,08,18,04,03,13.50
2010,08,18,04,04,13.50
2010,08,18,04,05,13.50
2010,08,18,04,06,13.50
2010,08,18,04,07,13.50
2010,08,18,04,08,13.40
2010,08,18,04,09,13.40
2010,08,18,04,10,13.40
2010,08,18,04,11,13.40
2010,08,18,04,12,13.40
2010,08,18,04,13,13.40
2010,08,18,04,14,13.40
2010,08,18,04,15,13.40
2010,08,18,04,16,13.30
2010,08,18,04,17,13.30
2010,08,18,04,18,13.30
2010,08,18,04,19,13.30
2010,08,18,04,20,13.30
2010,08,18,04,21,13.30
2010,08,18,04,22,13.30
2010,08,18,04,23,13.30
2010,08,18,04,24,13.30
2010,08,18,04,25,13.30
2010,08,18,04,26,13.30
2010,08,18,04,27,13.30
2010,08,18,04,28,13.30
2010,08,18,04,29,13.20
2010,08,18,04,30,13.20
2010,08,18,04,31,13.20
2010,08,18,04,32,13.20
2010,08,18,04,33,13.20
2010,08,18,04,34,13.20
2010,08,18,04,35,13.20
2010,08,18,04,36,13.20
2010,08,18,04,37,13.20
2010,08,18,04,38,13.20
2010,08,18,04,39,13.10
2010,08,18,04,40,13.10
2010,08,18,04,41,13.10
2010,08,18,04,42,13.10
2010,08,18,04,43,13.10
2010,08,18,04,44,13.10
2010,08,18,04,45,13.10
2010,08,18,04,46,13.10
2010,08,18,04,47,13.10
2010,08,18,04,48,13.10
2010,08,18,04,49,13.10
2010,08,18,04,50,13.00
2010,08,18,04,51,13.00
2010,08,18,04,52,13.00
2010,08,18,04,53,13.00
2010,08,18,04,54,13.00
2010,08,18,04,55,13.00
2010,08,18,04,56,13.00
2010,08,18,04,57,13.00
2010,08,18,04,58,12.90
2010,08,18,04,59,12.90
2010,08,18,05,00,12.90
2010,08,18,05,01,12.90
2010,08,18,05,02,12.90
2010,08,18,05,03,12.90
2010,08,18,05,04,12.90
2010,08,18,05,05,12.90
2010,08,18,05,06,12.90
2010,08,18,05,07,12.90
2010,08,18,05,08,12.90
2010,08,18,05,09,12.80
2010,08,18,05,10,12.80
2010,08,18,05,11,12.80
2010,08,18,05,12,12.80
2010,08,18,05,13,12.80
2010,08,18,05,14,12.80
2010,08,18,05,15,12.80
2010,08,18,05,16,12.80
2010,08,18,05,17,12.80
2010,08,18,05,18,12.80
2010,08,18,05,19,12.80
2010,08,18,05,20,12.80
2010,08,18,05,21,12.80
2010,08,18,05,22,12.80
2010,08,18,05,23,12.80
2010,08,18,05,24,12.80
2010,08,18,05,25,12.80
2010,08,18,05,26,12.80
2010,08,18,05,27,12.80
2010,08,18,05,28,12.80
2010,08,18,05,29,12.80
2010,08,18,05,30,12.80
2010,08,18,05,31,12.80
2010,08,18,05,32,12.80
2010,08,18,05,33,12.80
2010,08,18,05,34,12.80
2010,08,18,05,35,12.80
2010,08,18,05,36,12.80
2010,08,18,05,37,12.80
2010,08,18,05,38,12.80
2010,08,18,05,39,12.80
2010,08,18,05,40,12.80
2010,08,18,05,41,12.70
2010,08,18,05,42,12.70
2010,08,18,05,43,12.70
2010,08,18,05,44,12.70
2010,08,18,05,45,12.70
2010,08,18,05,46,12.70
2010,08,18,05,47,12.70
2010,08,18,05,48,12.70
2010,08,18,05,49,12.60
2010,08,18,05,50,12.60
2010,08,18,05,51,12.60
2010,08,18,05,52,12.60
2010,08,18,05,53,12.60
2010,08,18,05,54,12.60
2010,08,18,05,55,12.60
2010,08,18,05,56,12.60
2010,08,18,05,57,12.60
2010,08,18,05,58,12.60
2010,08,18,05,59,12.60
2010,08,18,06,00,12.50
2010,08,18,06,01,12.50
2010,08,18,06,02,12.50
2010,08,18,06,03,12.50
2010,08,18,06,04,12.50
2010,08,18,06,05,12.50
2010,08,18,06,06,12.50
2010,08,18,06,07,12.40
2010,08,18,06,08,12.40
2010,08,18,06,09,12.40
2010,08,18,06,10,12.40
2010,08,18,06,11,12.40
2010,08,18,06,12,12.40
2010,08,18,06,13,12.40
2010,08,18,06,14,12.40
2010,08,18,06,15,12.40
2010,08,18,06,16,12.40
2010,08,18,06,17,12.40
2010,08,18,06,18,12.30
2010,08,18,06,19,12.40
2010,08,18,06,20,12.40
2010,08,18,06,21,12.40
2010,08,18,06,22,12.40
2010,08,18,06,23,12.40
2010,08,18,06,24,12.30
2010,08,18,06,25,12.30
2010,08,18,06,26,12.30
2010,08,18,06,27,12.30
2010,08,18,06,28,12.30
2010,08,18,06,29,12.30
2010,08,18,06,30,12.30
2010,08,18,06,31,12.30
2010,08,18,06,32,12.30
2010,08,18,06,33,12.30
2010,08,18,06,34,12.30
2010,08,18,06,35,12.30
2010,08,18,06,36,12.30
2010,08,18,06,37,12.30
2010,08,18,06,38,12.30
2010,08,18,06,39,12.30
2010,08,18,06,40,12.30
2010,08,18,06,41,12.30
2010,08,18,06,42,12.30
2010,08,18,06,43,12.40
2010,08,18,06,44,12.40
2010,08,18,06,45,12.40
2010,08,18,06,46,12.40
2010,08,18,06,47,12.40
2010,08,18,06,48,12.40
2010,08,18,06,49,12.40
2010,08,18,06,50,12.50
2010,08,18,06,51,12.50
2010,08,18,06,52,12.50
2010,08,18,06,53,12.50
2010,08,18,06,54,12.50
2010,08,18,06,55,12.60
2010,08,18,06,56,12.60
2010,08,18,06,57,12.60
2010,08,18,06,58,12.60
2010,08,18,06,59,12.60
2010,08,18,07,00,12.70
2010,08,18,07,01,12.70
2010,08,18,07,02,12.70
2010,08,18,07,03,12.80
2010,08,18,07,04,12.80
2010,08,18,07,05,12.80
2010,08,18,07,06,12.80
2010,08,18,07,07,12.80
2010,08,18,07,08,12.80
2010,08,18,07,09,12.80
2010,08,18,07,10,12.90
2010,08,18,07,11,12.90
2010,08,18,07,12,12.90
2010,08,18,07,13,12.90
2010,08,18,07,14,12.90
2010,08,18,07,15,13.00
2010,08,18,07,16,13.00
2010,08,18,07,17,13.00
2010,08,18,07,18,13.00
2010,08,18,07,19,13.00
2010,08,18,07,20,13.00
2010,08,18,07,21,13.00
2010,08,18,07,22,13.00
2010,08,18,07,23,13.00
2010,08,18,07,24,13.00
2010,08,18,07,25,13.00
2010,08,18,07,26,13.00
2010,08,18,07,27,13.00
2010,08,18,07,28,13.00
2010,08,18,07,29,13.10
2010,08,18,07,30,13.10
2010,08,18,07,31,13.10
2010,08,18,07,32,13.10
2010,08,18,07,33,13.20
2010,08,18,07,34,13.20
2010,08,18,07,35,13.20
2010,08,18,07,36,13.20
2010,08,18,07,37,13.20
2010,08,18,07,38,13.20
2010,08,18,07,39,13.20
2010,08,18,07,40,13.20
2010,08,18,07,41,13.30
2010,08,18,07,42,13.30
2010,08,18,07,43,13.30
2010,08,18,07,44,13.30
2010,08,18,07,45,13.30
2010,08,18,07,46,13.30
2010,08,18,07,47,13.30
2010,08,18,07,48,13.30
2010,08,18,07,49,13.30
2010,08,18,07,50,13.40
2010,08,18,07,51,13.40
2010,08,18,07,52,13.30
2010,08,18,07,53,13.40
2010,08,18,07,54,13.40
2010,08,18,07,55,13.40
2010,08,18,07,56,13.40
2010,08,18,07,57,13.40
2010,08,18,07,58,13.40
2010,08,18,07,59,13.40
2010,08,18,08,00,13.40
2010,08,18,08,01,13.40
2010,08,18,08,02,13.50
2010,08,18,08,03,13.50
2010,08,18,08,04,13.50
2010,08,18,08,05,13.60
2010,08,18,08,06,13.60
2010,08,18,08,07,13.60
2010,08,18,08,08,13.70
2010,08,18,08,09,13.70
2010,08,18,08,10,13.70
2010,08,18,08,11,13.70
2010,08,18,08,12,13.70
2010,08,18,08,13,13.70
2010,08,18,08,14,13.70
2010,08,18,08,15,13.70
2010,08,18,08,16,13.70
2010,08,18,08,17,13.80
2010,08,18,08,18,13.80
2010,08,18,08,19,13.90
2010,08,18,08,20,13.90
2010,08,18,08,21,13.90
2010,08,18,08,22,13.90
2010,08,18,08,23,13.90
2010,08,18,08,24,13.90
2010,08,18,08,25,14.00
2010,08,18,08,26,14.00
2010,08,18,08,27,14.00
2010,08,18,08,28,14.10
2010,08,18,08,29,14.10
2010,08,18,08,30,14.10
2010,08,18,08,31,14.10
2010,08,18,08,32,14.10
2010,08,18,08,33,14.10
2010,08,18,08,34,14.10
2010,08,18,08,35,14.10
2010,08,18,08,36,14.10
2010,08,18,08,37,14.20
2010,08,18,08,38,14.10
2010,08,18,08,39,14.10
2010,08,18,08,40,14.20
2010,08,18,08,41,14.20
2010,08,18,08,42,14.20
2010,08,18,08,43,14.20
2010,08,18,08,44,14.20
2010,08,18,08,45,14.20
2010,08,18,08,46,14.20
2010,08,18,08,47,14.20
2010,08,18,08,48,14.20
2010,08,18,08,49,14.30
2010,08,18,08,50,14.30
2010,08,18,08,51,14.30
2010,08,18,08,52,14.30
2010,08,18,08,53,14.20
2010,08,18,08,54,14.20
2010,08,18,08,55,14.30
2010,08,18,08,56,14.40
2010,08,18,08,57,14.40
2010,08,18,08,58,14.40
2010,08,18,08,59,14.50
2010,08,18,09,00,14.50
2010,08,18,09,01,14.50
2010,08,18,09,02,14.50
2010,08,18,09,03,14.60
2010,08,18,09,04,14.60
2010,08,18,09,05,14.60
2010,08,18,09,06,14.50
2010,08,18,09,07,14.40
2010,08,18,09,08,14.30
2010,08,18,09,09,14.20
2010,08,18,09,10,14.20
2010,08,18,09,11,14.20
2010,08,18,09,12,14.20
2010,08,18,09,13,14.20
2010,08,18,09,14,14.10
2010,08,18,09,15,14.10
2010,08,18,09,16,14.20
2010,08,18,09,17,14.20
2010,08,18,09,18,14.20
2010,08,18,09,19,14.20
2010,08,18,09,20,14.20
2010,08,18,09,21,14.20
2010,08,18,09,22,14.20
2010,08,18,09,23,14.30
2010,08,18,09,24,14.30
2010,08,18,09,25,14.20
2010,08,18,09,26,14.20
2010,08,18,09,27,14.30
2010,08,18,09,28,14.40
2010,08,18,09,29,14.40
2010,08,18,09,30,14.50
2010,08,18,09,31,14.50
2010,08,18,09,32,14.50
2010,08,18,09,33,14.50
2010,08,18,09,34,14.50
2010,08,18,09,35,14.40
2010,08,18,09,36,14.40
2010,08,18,09,37,14.40
2010,08,18,09,38,14.40
2010,08,18,09,39,14.40
2010,08,18,09,40,14.40
2010,08,18,09,41,14.40
2010,08,18,09,42,14.40
2010,08,18,09,43,14.40
2010,08,18,09,44,14.50
2010,08,18,09,45,14.60
2010,08,18,09,46,14.60
2010,08,18,09,47,14.60
2010,08,18,09,48,14.70
2010,08,18,09,49,14.70
2010,08,18,09,50,14.60
2010,08,18,09,51,14.60
2010,08,18,09,52,14.60
2010,08,18,09,53,14.70
2010,08,18,09,54,14.80
2010,08,18,09,55,14.80
2010,08,18,09,56,14.80
2010,08,18,09,57,14.80
2010,08,18,09,58,14.80
2010,08,18,09,59,14.80
2010,08,18,10,00,14.80
2010,08,18,10,01,14.80
2010,08,18,10,02,14.80
2010,08,18,10,03,14.80
2010,08,18,10,04,14.80
2010,08,18,10,05,14.80
2010,08,18,10,06,14.80
2010,08,18,10,07,14.90
2010,08,18,10,08,14.90
2010,08,18,10,09,14.90
2010,08,18,10,10,14.80
2010,08,18,10,11,14.80
2010,08,18,10,12,14.90
2010,08,18,10,13,15.00
2010,08,18,10,14,15.00
2010,08,18,10,15,15.10
2010,08,18,10,16,15.10
2010,08,18,10,17,15.10
2010,08,18,10,18,15.10
2010,08,18,10,19,15.10
2010,08,18,10,20,15.20
2010,08,18,10,21,15.10
2010,08,18,10,22,15.20
2010,08,18,10,23,15.20
2010,08,18,10,24,15.20
2010,08,18,10,25,15.20
2010,08,18,10,26,15.20
2010,08,18,10,27,15.00
2010,08,18,10,28,15.10
2010,08,18,10,29,15.10
2010,08,18,10,30,15.20
2010,08,18,10,31,15.30
2010,08,18,10,32,15.20
2010,08,18,10,33,15.20
2010,08,18,10,34,15.20
2010,08,18,10,35,15.20
2010,08,18,10,36,15.10
2010,08,18,10,37,15.10
2010,08,18,10,38,15.20
2010,08,18,10,39,15.10
2010,08,18,10,40,15.10
2010,08,18,10,41,15.20
2010,08,18,10,42,15.20
2010,08,18,10,43,15.20
2010,08,18,10,44,15.20
2010,08,18,10,45,15.10
2010,08,18,10,46,15.10
2010,08,18,10,47,15.10
2010,08,18,10,48,15.10
2010,08,18,10,49,15.10
2010,08,18,10,50,15.10
2010,08,18,10,51,15.10
2010,08,18,10,52,15.20
2010,08,18,10,53,15.20
2010,08,18,10,54,15.30
2010,08,18,10,55,15.30
2010,08,18,10,56,15.30
2010,08,18,10,57,15.20
2010,08,18,10,58,15.20
2010,08,18,10,59,15.20
2010,08,18,11,00,15.10
2010,08,18,11,01,15.10
2010,08,18,11,02,15.10
2010,08,18,11,03,15.10
2010,08,18,11,04,15.10
2010,08,18,11,05,15.10
2010,08,18,11,06,15.00
2010,08,18,11,07,15.00
2010,08,18,11,08,15.00
2010,08,18,11,09,15.10
2010,08,18,11,10,15.10
2010,08,18,11,11,15.10
2010,08,18,11,12,15.20
2010,08,18,11,13,15.20
2010,08,18,11,14,15.30
2010,08,18,11,15,15.30
2010,08,18,11,16,15.30
2010,08,18,11,17,15.30
2010,08,18,11,18,15.30
2010,08,18,11,19,15.30
2010,08,18,11,20,15.30
2010,08,18,11,21,15.10
2010,08,18,11,22,15.10
2010,08,18,11,23,15.00
2010,08,18,11,24,15.00
2010,08,18,11,25,15.10
2010,08,18,11,26,15.20
2010,08,18,11,27,15.20
2010,08,18,11,28,15.20
2010,08,18,11,29,15.30
2010,08,18,11,30,15.30
2010,08,18,11,31,15.40
2010,08,18,11,32,15.40
2010,08,18,11,33,15.40
2010,08,18,11,34,15.40
2010,08,18,11,35,15.30
2010,08,18,11,36,15.30
2010,08,18,11,37,15.30
2010,08,18,11,38,15.30
2010,08,18,11,39,15.40
2010,08,18,11,40,15.50
2010,08,18,11,41,15.50
2010,08,18,11,42,15.60
2010,08,18,11,43,15.70
2010,08,18,11,44,15.80
2010,08,18,11,45,15.80
2010,08,18,11,46,15.70
2010,08,18,11,47,15.80
2010,08,18,11,48,15.80
2010,08,18,11,49,15.80
2010,08,18,11,50,15.80
2010,08,18,11,51,15.70
2010,08,18,11,52,15.70
2010,08,18,11,53,15.70
2010,08,18,11,54,15.80
2010,08,18,11,55,15.90
2010,08,18,11,56,16.00
2010,08,18,11,57,16.10
2010,08,18,11,58,16.10
2010,08,18,11,59,15.90
2010,08,18,12,00,15.90
2010,08,18,12,01,15.80
2010,08,18,12,02,15.90
2010,08,18,12,03,16.00
2010,08,18,12,04,16.00
2010,08,18,12,05,15.90
2010,08,18,12,06,15.90
2010,08,18,12,07,15.80
2010,08,18,12,08,15.80
2010,08,18,12,09,15.80
2010,08,18,12,10,15.80
2010,08,18,12,11,15.80
2010,08,18,12,12,15.90
2010,08,18,12,13,16.00
2010,08,18,12,14,16.10
2010,08,18,12,15,16.10
2010,08,18,12,16,16.20
2010,08,18,12,17,16.00
2010,08,18,12,18,15.90
2010,08,18,12,19,15.90
2010,08,18,12,20,16.10
2010,08,18,12,21,16.20
2010,08,18,12,22,16.20
2010,08,18,12,23,16.10
2010,08,18,12,24,16.10
2010,08,18,12,25,16.10
2010,08,18,12,26,16.00
2010,08,18,12,27,15.90
2010,08,18,12,28,15.90
2010,08,18,12,29,15.90
2010,08,18,12,30,15.90
2010,08,18,12,31,15.90
2010,08,18,12,32,16.00
2010,08,18,12,33,16.10
2010,08,18,12,34,16.10
2010,08,18,12,35,16.10
2010,08,18,12,36,16.00
2010,08,18,12,37,15.90
2010,08,18,12,38,15.80
2010,08,18,12,39,15.80
2010,08,18,12,40,15.90
2010,08,18,12,41,15.90
2010,08,18,12,42,15.90
2010,08,18,12,43,15.90
2010,08,18,12,44,15.90
2010,08,18,12,45,15.90
2010,08,18,12,46,15.90
2010,08,18,12,47,15.90
2010,08,18,12,48,15.80
2010,08,18,12,49,15.80
2010,08,18,12,50,15.90
2010,08,18,12,51,15.90
2010,08,18,12,52,15.80
2010,08,18,12,53,15.80
2010,08,18,12,54,15.80
2010,08,18,12,55,15.80
2010,08,18,12,56,15.80
2010,08,18,12,57,15.90
2010,08,18,12,58,16.00
2010,08,18,12,59,16.10
2010,08,18,13,00,16.10
2010,08,18,13,01,16.20
2010,08,18,13,02,16.30
2010,08,18,13,03,16.30
2010,08,18,13,04,16.20
2010,08,18,13,05,16.10
2010,08,18,13,06,16.00
2010,08,18,13,07,16.00
2010,08,18,13,08,16.10
2010,08,18,13,09,16.20
2010,08,18,13,10,16.20
2010,08,18,13,11,16.20
2010,08,18,13,12,16.20
2010,08,18,13,13,16.10
2010,08,18,13,14,16.10
2010,08,18,13,15,16.10
2010,08,18,13,16,16.10
2010,08,18,13,17,16.10
2010,08,18,13,18,16.10
2010,08,18,13,19,16.10
2010,08,18,13,20,16.10
2010,08,18,13,21,16.10
2010,08,18,13,22,16.20
2010,08,18,13,23,16.30
2010,08,18,13,24,16.40
2010,08,18,13,25,16.40
2010,08,18,13,26,16.40
2010,08,18,13,27,16.30
2010,08,18,13,28,16.40
2010,08,18,13,29,16.40
2010,08,18,13,30,16.40
2010,08,18,13,31,16.40
2010,08,18,13,32,16.30
2010,08,18,13,33,16.30
2010,08,18,13,34,16.30
2010,08,18,13,35,16.40
2010,08,18,13,36,16.40
2010,08,18,13,37,16.40
2010,08,18,13,38,16.30
2010,08,18,13,39,16.30
2010,08,18,13,40,16.30
2010,08,18,13,41,16.40
2010,08,18,13,42,16.40
2010,08,18,13,43,16.40
2010,08,18,13,44,16.60
2010,08,18,13,45,16.60
2010,08,18,13,46,16.70
2010,08,18,13,47,16.60
2010,08,18,13,48,16.60
2010,08,18,13,49,16.70
2010,08,18,13,50,16.70
2010,08,18,13,51,16.70
2010,08,18,13,52,16.70
2010,08,18,13,53,16.70
2010,08,18,13,54,16.70
2010,08,18,13,55,16.80
2010,08,18,13,56,16.80
2010,08,18,13,57,16.80
2010,08,18,13,58,16.90
2010,08,18,13,59,16.90
2010,08,18,14,00,16.90
2010,08,18,14,01,16.90
2010,08,18,14,02,16.80
2010,08,18,14,03,16.80
2010,08,18,14,04,16.90
2010,08,18,14,05,16.90
2010,08,18,14,06,16.90
2010,08,18,14,07,16.90
2010,08,18,14,08,16.90
2010,08,18,14,09,16.90
2010,08,18,14,10,17.00
2010,08,18,14,11,17.10
2010,08,18,14,12,17.00
2010,08,18,14,13,17.00
2010,08,18,14,14,16.90
2010,08,18,14,15,16.90
2010,08,18,14,16,16.90
2010,08,18,14,17,16.90
2010,08,18,14,18,16.90
2010,08,18,14,19,16.90
2010,08,18,14,20,17.00
2010,08,18,14,21,17.00
2010,08,18,14,22,17.00
2010,08,18,14,23,17.00
2010,08,18,14,24,17.10
2010,08,18,14,25,17.10
2010,08,18,14,26,17.10
2010,08,18,14,27,17.10
2010,08,18,14,28,17.00
2010,08,18,14,29,16.90
2010,08,18,14,30,16.80
2010,08,18,14,31,16.80
2010,08,18,14,32,16.80
2010,08,18,14,33,16.90
2010,08,18,14,34,17.00
2010,08,18,14,35,17.00
2010,08,18,14,36,16.80
2010,08,18,14,37,16.80
2010,08,18,14,38,16.80
2010,08,18,14,39,16.80
2010,08,18,14,40,16.80
2010,08,18,14,41,16.80
2010,08,18,14,42,16.80
2010,08,18,14,43,16.80
2010,08,18,14,44,16.90
2010,08,18,14,45,17.00
2010,08,18,14,46,17.10
2010,08,18,14,47,17.10
2010,08,18,14,48,17.10
2010,08,18,14,49,17.10
2010,08,18,14,50,17.10
2010,08,18,14,51,17.10
2010,08,18,14,52,17.20
2010,08,18,14,53,17.10
2010,08,18,14,54,17.20
2010,08,18,14,55,17.20
2010,08,18,14,56,17.30
2010,08,18,14,57,17.20
2010,08,18,14,58,17.20
2010,08,18,14,59,17.10
2010,08,18,15,00,17.00
2010,08,18,15,01,17.00
2010,08,18,15,02,17.10
2010,08,18,15,03,17.20
2010,08,18,15,04,17.30
2010,08,18,15,05,17.10
2010,08,18,15,06,17.10
2010,08,18,15,07,17.20
2010,08,18,15,08,17.20
2010,08,18,15,09,17.20
2010,08,18,15,10,17.20
2010,08,18,15,11,17.20
2010,08,18,15,12,17.10
2010,08,18,15,13,17.00
2010,08,18,15,14,17.00
2010,08,18,15,15,16.90
2010,08,18,15,16,16.80
2010,08,18,15,17,16.70
2010,08,18,15,18,16.70
2010,08,18,15,19,16.70
2010,08,18,15,20,16.80
2010,08,18,15,21,16.90
2010,08,18,15,22,17.00
2010,08,18,15,23,17.10
2010,08,18,15,24,17.10
2010,08,18,15,25,17.00
2010,08,18,15,26,17.00
2010,08,18,15,27,17.10
2010,08,18,15,28,17.10
2010,08,18,15,29,17.10
2010,08,18,15,30,17.00
2010,08,18,15,31,17.10
2010,08,18,15,32,17.00
2010,08,18,15,33,17.00
2010,08,18,15,34,16.90
2010,08,18,15,35,16.90
2010,08,18,15,36,16.90
2010,08,18,15,37,16.90
2010,08,18,15,38,16.90
2010,08,18,15,39,17.00
2010,08,18,15,40,16.90
2010,08,18,15,41,16.90
2010,08,18,15,42,16.90
2010,08,18,15,43,16.90
2010,08,18,15,44,17.00
2010,08,18,15,45,17.00
2010,08,18,15,46,17.00
2010,08,18,15,47,17.10
2010,08,18,15,48,17.10
2010,08,18,15,49,17.20
2010,08,18,15,50,17.30
2010,08,18,15,51,17.30
2010,08,18,15,52,17.40
2010,08,18,15,53,17.40
2010,08,18,15,54,17.40
2010,08,18,15,55,17.30
2010,08,18,15,56,17.30
2010,08,18,15,57,17.20
2010,08,18,15,58,17.20
2010,08,18,15,59,17.20
2010,08,18,16,00,17.10
2010,08,18,16,01,17.10
2010,08,18,16,02,17.10
2010,08,18,16,03,17.10
2010,08,18,16,04,17.10
2010,08,18,16,05,17.20
2010,08,18,16,06,17.20
2010,08,18,16,07,17.20
2010,08,18,16,08,17.10
2010,08,18,16,09,17.20
2010,08,18,16,10,17.30
2010,08,18,16,11,17.40
2010,08,18,16,12,17.50
2010,08,18,16,13,17.50
2010,08,18,16,14,17.60
2010,08,18,16,15,17.50
2010,08,18,16,16,17.50
2010,08,18,16,17,17.50
2010,08,18,16,18,17.50
2010,08,18,16,19,17.50
2010,08,18,16,20,17.50
2010,08,18,16,21,17.70
2010,08,18,16,22,17.80
2010,08,18,16,23,17.90
2010,08,18,16,24,17.90
2010,08,18,16,25,18.00
2010,08,18,16,26,18.10
2010,08,18,16,27,18.10
2010,08,18,16,28,18.20
2010,08,18,16,29,18.20
2010,08,18,16,30,18.20
2010,08,18,16,31,18.20
2010,08,18,16,32,18.30
2010,08,18,16,33,18.40
2010,08,18,16,34,18.50
2010,08,18,16,35,18.60
2010,08,18,16,36,18.60
2010,08,18,16,37,18.60
2010,08,18,16,38,18.70
2010,08,18,16,39,18.80
2010,08,18,16,40,18.80
2010,08,18,16,41,18.70
2010,08,18,16,42,18.70
2010,08,18,16,43,18.70
2010,08,18,16,44,18.70
2010,08,18,16,45,18.70
2010,08,18,16,46,18.70
2010,08,18,16,47,18.70
2010,08,18,16,48,18.70
2010,08,18,16,49,18.70
2010,08,18,16,50,18.70
2010,08,18,16,51,18.50
2010,08,18,16,52,18.50
2010,08,18,16,53,18.40
2010,08,18,16,54,18.40
2010,08,18,16,55,18.40
2010,08,18,16,56,18.40
2010,08,18,16,57,18.50
2010,08,18,16,58,18.50
2010,08,18,16,59,18.50
2010,08,18,17,00,18.50
2010,08,18,17,01,18.60
2010,08,18,17,02,18.60
2010,08,18,17,03,18.60
2010,08,18,17,04,18.60
2010,08,18,17,05,18.60
2010,08,18,17,06,18.60
2010,08,18,17,07,18.70
2010,08,18,17,08,18.80
2010,08,18,17,09,18.90
2010,08,18,17,10,18.90
2010,08,18,17,11,18.90
2010,08,18,17,12,18.90
2010,08,18,17,13,18.90
2010,08,18,17,14,18.90
2010,08,18,17,15,18.90
2010,08,18,17,16,18.90
2010,08,18,17,17,18.90
2010,08,18,17,18,18.90
2010,08,18,17,19,18.90